Meteo pe oră la

Astăzi, 26 Iulie, Luni

Timp Temperatura Precipitaţii Vânt Presiune Umiditate
00:00 +12°C° 3.5 mm 0 m/s 586 mmHg 99%
01:00 +12°C° 3.5 mm 0 m/s 586 mmHg 99%
02:00 +12°C° 0.6 mm 0 m/s 586 mmHg 99%
03:00 +12°C° 0.6 mm 0 m/s 586 mmHg 99%
04:00 +11°C° 0.6 mm 0 m/s 585 mmHg 99%
05:00 +12°C° 0 mm 0 m/s 586 mmHg 98%
06:00 +12°C° 0 mm 0 m/s 586 mmHg 98%
07:00 +12°C° 0 mm 0 m/s 586 mmHg 98%
08:00 +13°C° 0.3 mm 0 m/s 587 mmHg 92%
09:00 +15°C° 0.3 mm 0 m/s 587 mmHg 86%
10:00 +18°C° 0.3 mm 1 m/s 588 mmHg 80%
11:00 +19°C° 0.5 mm 1 m/s 588 mmHg 78%
12:00 +20°C° 0.5 mm 1 m/s 588 mmHg 75%
13:00 +20°C° 0.5 mm 1 m/s 587 mmHg 73%
14:00 +18°C° 0.8 mm 0 m/s 587 mmHg 79%
15:00 +17°C° 0.8 mm 0 m/s 586 mmHg 85%
16:00 +16°C° 0.8 mm 0 m/s 586 mmHg 90%
17:00 +15°C° 1 mm 0 m/s 586 mmHg 93%
18:00 +14°C° 1 mm 0 m/s 585 mmHg 95%
19:00 +12°C° 1 mm 0 m/s 585 mmHg 98%
20:00 +12°C° 0.9 mm 0 m/s 586 mmHg 98%
21:00 +12°C° 0.9 mm 0 m/s 586 mmHg 98%
22:00 +12°C° 0.9 mm 0 m/s 587 mmHg 98%
23:00 +12°C° 0.4 mm 0 m/s 586 mmHg 98%

Mâine, 27 Iulie, Marţi

Timp Temperatura Precipitaţii Vânt Presiune Umiditate
00:00 +12°C° 0.4 mm 0 m/s 586 mmHg 98%
01:00 +11°C° 0.4 mm 0 m/s 586 mmHg 98%
02:00 +11°C° 1.2 mm 0 m/s 585 mmHg 98%
03:00 +12°C° 1.2 mm 0 m/s 585 mmHg 99%
04:00 +12°C° 1.2 mm 0 m/s 585 mmHg 99%
05:00 +12°C° 1.4 mm 0 m/s 586 mmHg 99%
06:00 +12°C° 1.4 mm 0 m/s 586 mmHg 99%
07:00 +12°C° 1.4 mm 0 m/s 586 mmHg 99%
08:00 +12°C° 0.9 mm 0 m/s 587 mmHg 99%
09:00 +12°C° 0.9 mm 0 m/s 587 mmHg 99%
10:00 +13°C° 0.9 mm 0 m/s 587 mmHg 99%
11:00 +13°C° 3 mm 0 m/s 587 mmHg 99%
12:00 +13°C° 3 mm 0 m/s 587 mmHg 99%
13:00 +13°C° 3 mm 0 m/s 586 mmHg 99%
14:00 +13°C° 1 mm 0 m/s 586 mmHg 98%
15:00 +13°C° 1 mm 0 m/s 586 mmHg 97%
16:00 +13°C° 1 mm 0 m/s 586 mmHg 96%
17:00 +13°C° 0.1 mm 0 m/s 586 mmHg 97%
18:00 +12°C° 0.1 mm 0 m/s 586 mmHg 98%
19:00 +12°C° 0.1 mm 0 m/s 586 mmHg 99%
20:00 +12°C° 0.1 mm 0 m/s 586 mmHg 99%
21:00 +12°C° 0.1 mm 0 m/s 586 mmHg 98%
22:00 +11°C° 0.1 mm 0 m/s 586 mmHg 98%
23:00 +11°C° 0.2 mm 0 m/s 586 mmHg 98%

Poimâine, 28 Iulie, Miercuri

Timp Temperatura Precipitaţii Vânt Presiune Umiditate
00:00 +11°C° 0.2 mm 0 m/s 586 mmHg 99%
01:00 +11°C° 0.2 mm 0 m/s 586 mmHg 99%
02:00 +11°C° 0.6 mm 0 m/s 585 mmHg 99%
03:00 +11°C° 0.6 mm 0 m/s 585 mmHg 99%
04:00 +11°C° 0.6 mm 0 m/s 585 mmHg 99%
05:00 +11°C° 0.4 mm 0 m/s 585 mmHg 99%
06:00 +11°C° 0.4 mm 0 m/s 586 mmHg 99%
07:00 +12°C° 0.4 mm 0 m/s 586 mmHg 99%
08:00 +13°C° 0.1 mm 0 m/s 587 mmHg 94%
09:00 +14°C° 0.1 mm 0 m/s 587 mmHg 89%
10:00 +16°C° 0.1 mm 1 m/s 588 mmHg 83%
11:00 +18°C° 0.5 mm 1 m/s 588 mmHg 81%
12:00 +19°C° 0.5 mm 1 m/s 587 mmHg 78%
13:00 +20°C° 0.5 mm 1 m/s 587 mmHg 75%
14:00 +20°C° 1 mm 1 m/s 586 mmHg 76%
15:00 +17°C° 1 mm 0 m/s 586 mmHg 77%
16:00 +17°C° 1 mm 0 m/s 585 mmHg 79%
17:00 +16°C° 1.2 mm 0 m/s 585 mmHg 85%
18:00 +15°C° 1.2 mm 1 m/s 585 mmHg 92%
19:00 +13°C° 1.2 mm 1 m/s 585 mmHg 98%
20:00 +13°C° 1.5 mm 1 m/s 586 mmHg 98%
21:00 +12°C° 1.5 mm 0 m/s 586 mmHg 98%
22:00 +12°C° 1.5 mm 0 m/s 586 mmHg 98%
23:00 +12°C° 2.3 mm 0 m/s 586 mmHg 98%

29 Iulie, Joi

Timp Temperatura Precipitaţii Vânt Presiune Umiditate
00:00 +12°C° 2.3 mm 0 m/s 586 mmHg 99%
01:00 +12°C° 2.3 mm 0 m/s 586 mmHg 99%
02:00 +12°C° 0.9 mm 1 m/s 585 mmHg 99%
03:00 +12°C° 0.9 mm 1 m/s 585 mmHg 98%
04:00 +12°C° 0.9 mm 1 m/s 585 mmHg 98%
05:00 +12°C° 0 mm 1 m/s 585 mmHg 97%
06:00 +11°C° 0 mm 0 m/s 586 mmHg 97%
07:00 +11°C° 0 mm 0 m/s 586 mmHg 96%
08:00 +15°C° 0.1 mm 1 m/s 587 mmHg 85%
09:00 +18°C° 0.1 mm 1 m/s 587 mmHg 74%
10:00 +20°C° 0.1 mm 1 m/s 588 mmHg 64%
11:00 +21°C° 0.2 mm 1 m/s 588 mmHg 59%
12:00 +23°C° 0.2 mm 1 m/s 588 mmHg 55%
13:00 +24°C° 0.2 mm 1 m/s 588 mmHg 51%
14:00 +23°C° 0.3 mm 1 m/s 587 mmHg 54%
15:00 +23°C° 0.3 mm 1 m/s 587 mmHg 57%
16:00 +22°C° 0.3 mm 1 m/s 586 mmHg 60%
17:00 +20°C° 0.5 mm 1 m/s 586 mmHg 71%
18:00 +16°C° 0.5 mm 1 m/s 585 mmHg 83%
19:00 +14°C° 0.5 mm 1 m/s 585 mmHg 94%
20:00 +13°C° 0.4 mm 1 m/s 585 mmHg 95%
21:00 +12°C° 0.4 mm 1 m/s 586 mmHg 95%
22:00 +12°C° 0.4 mm 1 m/s 586 mmHg 95%
23:00 +12°C° 0.1 mm 1 m/s 586 mmHg 96%

30 Iulie, Vineri

Timp Temperatura Precipitaţii Vânt Presiune Umiditate
00:00 +11°C° 0.1 mm 1 m/s 585 mmHg 96%
01:00 +11°C° 0.1 mm 1 m/s 585 mmHg 96%
02:00 +11°C° 0 mm 1 m/s 585 mmHg 96%
03:00 +11°C° 0 mm 1 m/s 585 mmHg 96%
04:00 +11°C° 0 mm 1 m/s 585 mmHg 95%
05:00 +10°C° 0 mm 0 m/s 585 mmHg 94%
06:00 +11°C° 0 mm 0 m/s 586 mmHg 93%
07:00 +11°C° 0 mm 0 m/s 586 mmHg 92%
08:00 +15°C° 0 mm 1 m/s 587 mmHg 80%
09:00 +18°C° 0 mm 1 m/s 588 mmHg 68%
10:00 +21°C° 0 mm 1 m/s 589 mmHg 56%
11:00 +22°C° 0 mm 1 m/s 589 mmHg 53%
12:00 +23°C° 0 mm 1 m/s 589 mmHg 49%
13:00 +24°C° 0 mm 1 m/s 589 mmHg 46%
14:00 +24°C° 0 mm 1 m/s 588 mmHg 48%
15:00 +23°C° 0 mm 1 m/s 588 mmHg 50%
16:00 +23°C° 0 mm 1 m/s 587 mmHg 53%
17:00 +20°C° 0.3 mm 1 m/s 587 mmHg 65%
18:00 +18°C° 0.3 mm 1 m/s 586 mmHg 77%
19:00 +14°C° 0.3 mm 1 m/s 586 mmHg 89%
20:00 +14°C° 0.2 mm 1 m/s 586 mmHg 90%
21:00 +13°C° 0.2 mm 1 m/s 586 mmHg 91%
22:00 +12°C° 0.2 mm 1 m/s 586 mmHg 92%
23:00 +12°C° 0.1 mm 1 m/s 586 mmHg 92%

31 Iulie, Sâmbătă

Timp Temperatura Precipitaţii Vânt Presiune Umiditate
00:00 +12°C° 0.1 mm 1 m/s 586 mmHg 92%
01:00 +12°C° 0.1 mm 1 m/s 586 mmHg 93%
02:00 +11°C° 0 mm 0 m/s 586 mmHg 92%
03:00 +11°C° 0 mm 0 m/s 586 mmHg 92%
04:00 +11°C° 0 mm 0 m/s 586 mmHg 91%
05:00 +12°C° 0 mm 0 m/s 586 mmHg 91%
06:00 +12°C° 0 mm 0 m/s 586 mmHg 90%
07:00 +12°C° 0 mm 0 m/s 587 mmHg 90%
08:00 +14°C° 0 mm 0 m/s 588 mmHg 81%
09:00 +18°C° 0 mm 1 m/s 588 mmHg 71%
10:00 +20°C° 0 mm 1 m/s 589 mmHg 62%
11:00 +21°C° 0.6 mm 1 m/s 589 mmHg 62%
12:00 +22°C° 0.6 mm 1 m/s 589 mmHg 62%
13:00 +21°C° 0.6 mm 0 m/s 588 mmHg 61%
14:00 +20°C° 0.9 mm 0 m/s 588 mmHg 64%
15:00 +22°C° 0.9 mm 1 m/s 587 mmHg 67%
16:00 +21°C° 0.9 mm 1 m/s 587 mmHg 71%
17:00 +19°C° 0.8 mm 1 m/s 586 mmHg 79%
18:00 +16°C° 0.8 mm 1 m/s 586 mmHg 87%
19:00 +14°C° 0.8 mm 1 m/s 586 mmHg 95%
20:00 +14°C° 1.2 mm 1 m/s 586 mmHg 96%
21:00 +13°C° 1.2 mm 1 m/s 586 mmHg 97%
22:00 +13°C° 1.2 mm 1 m/s 587 mmHg 98%
23:00 +13°C° 0.8 mm 1 m/s 586 mmHg 98%
Arată mai mult

Formular de consimțământ

Meteoprog și furnizorii noștri de servicii pot stoca și accesa date personale, precum cookies, identificatori de dispozitiv sau alte tehnologii similare pe dispozitivul dumneavoastră și procesa astfel de date pentru a personaliza conținutul și reclamele, dar și pentru a oferi caracteristici de social media și pentru a analiza traficul.

  • Stocarea și/sau accesarea informațiilor pe dispozitivul dumneavoastră

    Cookies, identificatori de dispozitiv sau alte informații pot fi stocate sau accesate pe dispozitiv în scopurile indicate mai sus.

  • Reclame și conținut personalizat, evaluarea reclamelor și a conținutului, informații despre audiențe și dezvoltarea produselor

    Reclamele și conținutul pot fi personalizate pe baza unui profil. Pot fi adăugate date suplimentare pentru a personaliza mai bine reclamele și conținutul. Performanța reclamelor și conținutului poate fi măsurată. Pot fi obținute informații despre utilizatorii care au văzut reclamele și conținutul. Aceste date pot fi utilizate pentru a dezvolta sau îmbunătăți experiența utilizatorilor, sistemele și software-ul.

Dând clic pe ‘Sunt de acord’, permiteți utilizarea cookie-urilor menționate, a identificatorilor de dispozitiv, balizelor web sau altor tehnologii similare. Setările pot fi modificate din browser-ul dispozitivului dumneavoastră.

În anumite scopuri, interesele legitime pot prima asupra consimțământului. Puteți citi mai multe informații în acest sens în Politica privind Confidențialitatea Datelor și Cookie.